STARLINK-30520, 58010

Orbit data source: Space-Track

STARLINK-30520, 58010 is a payload satellite owned by SpaceX/Seattle (US) in LEO that was launched on Thu, 05 Oct 2023 UTC via an FALCON 9 launch vehicle from the Air Force Eastern Test Range (AFETR). Payload-class satellites include a variety of spacecraft equipped with specific instruments for various scientific and technological missions. These include communications satellites like Starlink; space stations such as the ISS; scientific satellites like the Hubble; Earth observation satellites from companies like Planet Labs, Umbra, and HawkEye 360; GPS; miniature CubeSats for education and research; and military/defense satellites.

Loading next visibility...
Identifier
58010, 2023-153V
Orbit
LEO
Country
Flag of USUS
Related business
Manufacturer
SpaceX/Seattle
Mission
Operational Commercial Communications
Bus & Motor
STARLINK V2M, Unknown motor
Mass
730 kg wet, ~700 kg dry
Launch date (UTC)
2023-10-05 (3 years ago)
Launch vehicle
FALCON 9
Launch site
Air Force Eastern Test Range (AFETR)
Object type
Payload
Rocket body
Debris
Shape & HBR
Box + 2 Pan, 17.7 m
Radar Cross Section
33.884 m², Large (>1 m²)

Expand to show TLE details & history
Last TLE update: 2 days ago

TLE from 2 days ago
0 STARLINK-30520
1 58010U 23153V   26171.38869697  .00000007  00000-0  97797-5 0  9992
2 58010  43.0014 206.9767 0001393 268.7917  91.2775 15.27575917150502
Epoch: 2026-06-20T09:19Z
TLE epoch observation values (Epoch: 2026-06-20T09:19:43.418Z)
Latitude
-0.00001°
Longitude
158.44175°
Altitude
482.858 km
Speed
7.626 km/s
True Right ascension
13h 47m 54s
True Declination
0° 00' 00"
Sunlit
Object was in full shadow at epoch
Visualization orbit readout
Latitude
Unknown
Longitude
Unknown
Altitude
Unknown
Speed
Unknown
Apparent Right ascension
Unknown
Apparent Declination
Unknown
Sunlit
N/A
Visualization observer readout
Local Sidereal Time
21:25:48
Azimuth
Unknown
Elevation
Unknown
Doppler factor
Unknown
Orbital elements
Apogee altitude
485.962 km
Perigee altitude
484.05 km
Semi-major axis
6,863.143 km
Eccentricity
0.00014
Inclination
43.0014°
RAAN
206.9767°
Arg. of periapsis
268.7917°
True anomaly
91.29346°
Mean anomaly
91.2775°
Eccentric anomaly
91.28548°
Mean motion
3.81732 °/min
Orbital period
94.31 mins
BSTAR
0.0000097797
Loading maneuver chart data...
Computing Atmospheric mass density...
Loading historical data...
Loading historical data...
Loading historical data...
Loading historical data...
Loading historical data...
Loading historical data...
Loading historical data...

Documentation

Showing up to 5 results
|